sat.trackr.live / text

‹ back to catalog

STARLINK-33969

NORAD 63855 · 2025-093V

PAYLOAD ACTIVE UNKNOWN

§ Identity

Operator
Country
US
Launch date
2025-05-07
Launch site
AFETR
Launch vehicle
Mass (kg)
RCS (m²)

Purposes: comms

External: N2YO · Heavens-Above · Gunter

§ Orbital elements

Epoch: 2026-05-25T00:00:59.616000Z

Period
94.27 min
Inclination
43.0043°
Eccentricity
0.0001320
Mean motion
15.27604584 rev/d
Perigee alt
482.1 km
Apogee alt
483.9 km
Semi-major
6,861.1 km
B*
6.0632e-4
RAAN
6.8580°
Arg perigee
271.3960°
Mean anomaly
88.6740°
Rev number
5,942

§ Raw data

STARLINK-339691 63855U 25093V   26145.00069000  .00016472  00000+0  60632-3 0  99982 63855  43.0043   6.8580 0001320 271.3960  88.6740 15.27604584 59429

JSON: /api/v1/satellites/63855 · /tle

For live sub-satellite position, see the globe view (requires WebGL).

§ Visibility from observer

Set your observer location to see the next 7 days of passes ≥ 10°. The values pass through the URL so the page stays shareable.

No JS? Fill the form by hand. The geolocation button needs JavaScript.